User: anonymous   Login
Location: Unspecified
(0.0000°N, 0.0000°E)
Time: 02:47:35
(UTC+00:00)
Language:

AAUSAT CUBESAT 2 - Orbit

View from above orbital plane
View from above orbital plane
View from above satellite
View from above satellite

Ground track
Ground track

The orbit data is extracted from the following two-line orbital elements,

1 32788U 08021F   17146.86641188 +.00000547 +00000-0 +56632-4 0  9992
2 32788 097.5606 183.6536 0011519 194.2065 165.8833 14.93845140492490
Epoch (UTC): 26 May 2017 20:47:37
Eccentricity: 0.0011519
inclination: 97.5606°
perigee height: 578 km
apogee height: 594 km
right ascension of ascending node: 183.6536°
argument of perigee: 194.2065°
revolutions per day: 14.93845140
mean anomaly at epoch: 165.8833°
orbit number at epoch: 49249

The dashed part of the orbit path shows where the satellite is in the earth's shadow,  

DLR